FW9975 Weather Reports


time (UTC)temp
F
wind
direction
speed
knots
gust
knots
rain 1hr
in
rain 24hr
in
rain mn
in
humidity
%
barometer
mb
20260505072817 65 200 2.6 2.6 0.00 0.00 0.00 62 1003.7
20260505072313 65 263 0.0 1.7 0.00 0.00 0.00 63 1003.8
20260505071809 65 263 0.9 2.6 0.00 0.00 0.00 62 1003.8
20260505071306 65 202 3.5 4.3 0.00 0.00 0.00 62 1003.8
20260505070804 65 204 2.6 5.2 0.00 0.00 0.00 62 1003.8
20260505070300 65 223 2.6 5.2 0.00 0.00 0.00 63 1003.9
20260505065755 65 217 2.6 2.6 0.00 0.00 0.00 63 1003.8
20260505065252 65 207 2.6 4.3 0.00 0.00 0.00 63 1003.5
20260505064749 65 208 3.5 6.1 0.00 0.00 0.00 63 1003.8
20260505064247 64 225 2.6 2.6 0.00 0.00 0.00 65 1003.8
20260505063744 64 203 3.5 4.3 0.00 0.00 0.00 66 1004.0
20260505063240 64 239 0.9 2.6 0.00 0.00 0.00 65 1004.0
20260505062737 64 258 0.0 1.7 0.00 0.00 0.00 66 1004.1
20260505062234 64 238 2.6 2.6 0.00 0.00 0.00 65 1003.9
20260505061731 64 257 0.9 1.7 0.00 0.00 0.00 66 1004.1
20260505061229 64 252 1.7 1.7 0.00 0.00 0.00 65 1003.8
20260505060726 65 239 1.7 2.6 0.00 0.00 0.00 65 1003.8
20260505060223 65 207 3.5 4.3 0.00 0.00 0.00 64 1003.6
20260505055718 65 245 1.7 2.6 0.00 0.00 0.00 64 1003.8
20260505055215 65 204 3.5 4.3 0.00 0.00 0.00 64 1003.3
20260505054713 65 209 2.6 4.3 0.00 0.00 0.00 63 1003.4
20260505054210 66 233 1.7 4.3 0.00 0.00 0.00 62 1003.2
20260505053708 66 215 2.6 5.2 0.00 0.00 0.00 62 1003.5
20260505053204 66 203 3.5 5.2 0.00 0.00 0.00 61 1003.6
20260505052702 67 200 4.3 6.1 0.00 0.00 0.00 60 1003.1
20260505052158 67 215 3.5 4.3 0.00 0.00 0.00 60 1003.2
20260505051655 67 198 2.6 4.3 0.00 0.00 0.00 60 1003.5
20260505051154 67 195 4.3 5.2 0.00 0.00 0.00 59 1003.4
20260505050651 67 241 2.6 4.3 0.00 0.00 0.00 59 1003.5
20260505050149 68 211 4.3 5.2 0.00 0.00 0.00 59 1003.7
20260505041619 68 273 0.9 2.6 0.00 0.00 0.00 59 1003.9
20260505041116 69 255 0.9 2.6 0.00 0.00 0.00 59 1004.0
20260505040613 68 252 0.9 4.3 0.00 0.00 0.00 58 1003.9
20260505040110 68 252 0.9 2.6 0.00 0.00 0.00 59 1004.1
20260505035607 69 252 0.9 2.6 0.00 0.00 0.00 59 1003.9
20260505035103 68 252 0.9 1.7 0.00 0.00 0.00 58 1004.0
20260505034600 69 251 0.9 2.6 0.00 0.00 0.00 59 1004.0
20260505034056 68 252 0.9 1.7 0.00 0.00 0.00 59 1004.0
20260505033553 68 241 1.7 2.6 0.00 0.00 0.00 60 1004.0
20260505033052 69 250 0.9 1.7 0.00 0.00 0.00 59 1003.8
20260505032549 69 251 0.9 1.7 0.00 0.00 0.00 59 1003.8
20260505032045 69 247 1.7 1.7 0.00 0.00 0.00 59 1003.9
20260505031543 69 226 2.6 2.6 0.00 0.00 0.00 60 1003.9
20260505031039 68 250 0.9 0.9 0.00 0.00 0.00 60 1004.0
20260505030536 68 244 1.7 1.7 0.00 0.00 0.00 60 1003.5
20260505030032 68 233 0.9 1.7 0.00 0.00 0.00 61 1003.6
20260505025528 68 233 0.9 1.7 0.00 0.00 0.00 61 1003.6
20260505025027 68 233 0.9 2.6 0.00 0.00 0.00 61 1003.4
20260505024524 69 233 0.9 1.7 0.00 0.00 0.00 60 1003.4
20260505024021 69 234 0.0 0.9 0.00 0.00 0.00 59 1003.3
20260505023518 69 234 0.9 0.9 0.00 0.00 0.00 59 1003.5
20260505023016 69 234 0.9 1.7 0.00 0.00 0.00 59 1003.3
20260505022513 69 234 0.9 1.7 0.00 0.00 0.00 59 1003.2
20260505022010 69 231 2.6 2.6 0.00 0.00 0.00 58 1003.2
20260505021506 69 233 1.7 2.6 0.00 0.00 0.00 58 1003.0
20260505021003 69 222 0.9 2.6 0.00 0.00 0.00 58 1003.2
20260505020458 69 224 2.6 2.6 0.00 0.00 0.00 59 1002.9
20260505015954 70 204 2.6 2.6 0.00 0.00 0.00 58 1002.8
20260505015452 69 232 2.6 2.6 0.00 0.00 0.00 58 1002.5
20260505014949 70 232 2.6 2.6 0.00 0.00 0.00 58 1002.6
20260505014446 70 233 0.9 1.7 0.00 0.00 0.00 58 1002.7
20260505013943 70 233 1.7 1.7 0.00 0.00 0.00 57 1002.7
20260505013440 70 230 2.6 2.6 0.00 0.00 0.00 57 1002.6
20260505012937 71 227 2.6 2.6 0.00 0.00 0.00 57 1002.6
20260505012435 71 226 2.6 2.6 0.00 0.00 0.00 56 1002.6
20260505011931 70 220 2.6 2.6 0.00 0.00 0.00 57 1002.5
20260505011427 71 222 2.6 2.6 0.00 0.00 0.00 56 1002.6
20260505010925 71 232 1.7 2.6 0.00 0.00 0.00 55 1002.6
20260505010420 71 233 1.7 2.6 0.00 0.00 0.00 55 1002.5
20260505005917 71 227 2.6 4.3 0.00 0.00 0.00 54 1002.5
20260505005414 72 227 2.6 2.6 0.00 0.00 0.00 54 1002.6
20260505004911 72 221 2.6 5.2 0.00 0.00 0.00 53 1002.3
20260505004408 72 233 1.7 4.3 0.00 0.00 0.00 53 1002.2
20260505003905 72 205 3.5 4.3 0.00 0.00 0.00 52 1002.2
20260505003402 73 207 3.5 4.3 0.00 0.00 0.00 52 1002.3
20260505002858 73 206 2.6 2.6 0.00 0.00 0.00 52 1002.5
20260505002354 73 218 1.7 2.6 0.00 0.00 0.00 51 1002.3
20260505001853 73 209 2.6 4.3 0.00 0.00 0.00 50 1002.3
20260505001349 73 197 3.5 6.1 0.00 0.00 0.00 50 1002.6
20260505000847 73 216 2.6 2.6 0.00 0.00 0.00 49 1002.6
20260505000345 74 240 1.7 5.2 0.00 0.00 0.00 49 1002.6
20260504235841 74 246 1.7 2.6 0.00 0.00 0.00 49 1002.8
20260504235338 75 263 0.9 2.6 0.00 0.00 0.00 47 1002.7
20260504234835 74 264 0.9 4.3 0.00 0.00 0.00 46 1002.8
20260504234332 75 249 0.9 5.2 0.00 0.00 0.00 46 1003.2
20260504233829 75 299 1.7 4.3 0.00 0.00 0.00 45 1003.0
20260504233324 75 238 1.7 4.3 0.00 0.00 0.00 44 1003.0
20260504232822 75 253 3.5 7.8 0.00 0.00 0.00 44 1003.0
20260504232319 76 196 3.5 4.3 0.00 0.00 0.00 45 1003.1
20260504231815 76 258 1.7 5.2 0.00 0.00 0.00 44 1003.1
20260504231312 76 261 3.5 5.2 0.00 0.00 0.00 45 1003.1
20260504230808 76 238 2.6 4.3 0.00 0.00 0.00 44 1003.3
20260504230306 76 253 1.7 6.1 0.00 0.00 0.00 45 1002.9
20260504225805 77 273 2.6 7.8 0.00 0.00 0.00 44 1003.2
20260504225301 77 241 1.7 2.6 0.00 0.00 0.00 44 1003.4
20260504224758 76 206 2.6 6.1 0.00 0.00 0.00 44 1003.5
20260504224255 77 275 1.7 7.8 0.00 0.00 0.00 45 1003.3
20260504223751 77 265 2.6 5.2 0.00 0.00 0.00 44 1003.4
20260504223247 78 212 3.5 4.3 0.00 0.00 0.00 46 1003.2
20260504222744 77 249 6.1 9.6 0.00 0.00 0.00 44 1003.4
20260504222241 76 256 1.7 6.1 0.00 0.00 0.00 46 1003.4
20260504221739 75 238 5.2 7.8 0.00 0.00 0.00 49 1003.2
20260504221236 75 210 2.6 2.6 0.00 0.00 0.00 52 1003.1
20260504220732 75 199 4.3 5.2 0.00 0.00 0.00 52 1003.5
20260504220229 75 207 3.5 4.3 0.00 0.00 0.00 52 1003.3
20260504215727 75 213 2.6 2.6 0.00 0.00 0.00 51 1003.4
20260504215223 75 278 0.0 1.7 0.00 0.00 0.00 50 1003.7
20260504214719 75 270 0.0 1.7 0.00 0.00 0.00 50 1003.7
20260504214215 75 273 0.0 1.7 0.00 0.00 0.00 51 1003.7
20260504213712 76 260 0.9 4.3 0.00 0.00 0.00 51 1003.7
20260504213209 75 210 2.6 2.6 0.00 0.00 0.00 52 1003.8
20260504212706 76 223 2.6 2.6 0.00 0.00 0.00 50 1004.0
20260504212203 76 277 2.6 6.1 0.00 0.00 0.00 48 1004.1
20260504211700 77 291 0.0 5.2 0.00 0.00 0.00 47 1003.9
20260504211156 77 274 2.6 4.3 0.00 0.00 0.00 47 1004.0
20260504210654 77 266 0.9 1.7 0.00 0.00 0.00 47 1003.9
20260504210150 76 270 1.7 4.3 0.00 0.00 0.00 48 1004.3
20260504205648 77 259 1.7 5.2 0.00 0.00 0.00 48 1004.2
20260504205144 77 292 0.9 1.7 0.00 0.00 0.00 47 1004.3
20260504204643 79 293 1.7 5.2 0.00 0.00 0.00 46 1004.2
20260504204142 78 285 1.7 5.2 0.00 0.00 0.00 47 1004.3
20260504203640 78 260 1.7 1.7 0.00 0.00 0.00 46 1004.2
20260504203137 77 307 4.3 7.0 0.00 0.00 0.00 46 1004.5
20260504202637 77 266 0.9 1.7 0.00 0.00 0.00 48 1005.0
20260504202134 76 251 0.9 1.7 0.00 0.00 0.00 48 1004.6
20260504201631 76 260 1.7 2.6 0.00 0.00 0.00 50 1004.7
20260504201129 75 291 3.5 5.2 0.00 0.00 0.00 47 1004.6
20260504200626 75 184 2.6 4.3 0.00 0.00 0.00 51 1004.9
20260504200122 76 251 0.0 1.7 0.00 0.00 0.00 49 1004.9
20260504195618 76 291 1.7 2.6 0.00 0.00 0.00 48 1005.1
20260504195115 74 275 0.9 4.3 0.00 0.00 0.00 51 1005.2
20260504194612 74 220 1.7 5.2 0.00 0.00 0.00 54 1005.3
20260504194107 75 228 2.6 4.3 0.00 0.00 0.00 51 1005.5
20260504193604 75 258 1.7 2.6 0.00 0.00 0.00 50 1005.7
20260504193103 75 245 1.7 4.3 0.00 0.00 0.00 55 1005.6
20260504192600 74 268 1.7 6.1 0.00 0.00 0.00 53 1005.7
20260504192058 73 264 0.9 2.6 0.00 0.00 0.00 56 1005.6
20260504191556 74 195 7.0 7.8 0.00 0.00 0.00 54 1005.7
20260504191052 74 266 1.7 6.1 0.00 0.00 0.00 53 1006.0
20260504190548 73 249 0.9 2.6 0.00 0.00 0.00 56 1006.0
20260504190044 71 306 1.7 5.2 0.00 0.00 0.00 56 1005.9
20260504185542 71 353 2.6 2.6 0.00 0.00 0.00 56 1006.0
20260504185038 71 247 1.7 2.6 0.00 0.00 0.00 57 1006.3
20260504184534 70 282 0.0 1.7 0.00 0.00 0.00 59 1006.3
20260504184029 70 253 1.7 4.3 0.00 0.00 0.00 59 1006.1
20260504183527 70 268 0.9 2.6 0.00 0.00 0.00 60 1006.4
20260504183025 70 208 3.5 4.3 0.00 0.00 0.00 61 1006.3
20260504182521 70 295 2.6 7.0 0.00 0.00 0.00 59 1006.2
20260504182019 70 263 2.6 5.2 0.00 0.00 0.00 59 1005.8
20260504181515 69 255 2.6 6.1 0.00 0.00 0.00 58 1006.0
20260504181014 69 221 5.2 6.1 0.00 0.00 0.00 60 1005.8
20260504180512 69 269 1.7 4.3 0.00 0.00 0.00 60 1005.7
20260504180011 69 229 4.3 7.0 0.00 0.00 0.00 61 1005.8
20260504175508 69 233 2.6 6.1 0.00 0.00 0.00 59 1005.6
20260504175005 69 257 2.6 7.8 0.00 0.00 0.00 59 1005.9
20260504174503 69 213 2.6 6.1 0.00 0.00 0.00 60 1005.6
20260504173959 69 274 5.2 8.7 0.00 0.00 0.00 58 1005.6
20260504173456 71 184 6.1 8.7 0.00 0.00 0.00 59 1005.7
20260504172953 70 267 2.6 4.3 0.00 0.00 0.00 58 1005.9
20260504172449 69 201 3.5 4.3 0.00 0.00 0.00 59 1005.8
20260504171946 69 267 0.9 6.1 0.00 0.00 0.00 59 1005.8
20260504171443 69 238 3.5 6.1 0.00 0.00 0.00 59 1005.5
20260504170940 69 188 8.7 8.7 0.00 0.00 0.00 59 1004.9
20260504170436 69 199 4.3 5.2 0.00 0.00 0.00 59 1005.5
20260504160355 69 279 0.9 2.6 0.00 0.00 0.00 57 1006.5
20260504150820 64 199 4.3 5.2 0.00 0.00 0.00 63 1006.4
20260504150316 64 192 3.5 4.3 0.00 0.00 0.00 64 1006.5
20260504141247 62 206 4.3 7.8 0.00 0.00 0.00 64 1006.8
20260504140743 62 229 1.7 5.2 0.00 0.00 0.00 67 1006.9
20260504140239 62 207 4.3 5.2 0.00 0.00 0.00 66 1007.0
20260504130708 57 214 2.6 4.3 0.00 0.00 0.00 72 1007.6
20260504130203 57 193 2.6 4.3 0.00 0.00 0.00 70 1007.5
20260504120127 53 268 0.0 0.9 0.00 0.00 0.00 72 1007.7
20260504110555 51 271 0.0 0.9 0.00 0.00 0.00 73 1007.3
20260504100517 50 283 0.0 0.0 0.00 0.00 0.00 71 1007.8
20260504081910 51 268 0.9 0.9 0.00 0.00 0.00 69 1008.2
20260504081407 50 282 0.9 0.9 0.00 0.00 0.00 69 1008.5
20260504080903 50 295 0.0 0.9 0.00 0.00 0.00 71 1008.1
20260504080400 50 298 0.9 0.9 0.00 0.00 0.00 72 1008.6